Wind_Speed
19 19 18 18 18 17 15 15 15 15 15 15 15 14 14 14 13 13 13 13 12 12 12 13 13 13 14 15 17 18 18 18 18 18 17 17 16 15 14 13 12 13 15 16 16 15 14 12 13 13 13 11 8 6 5 5 6 7 7 7 7 7 6 6 6 5 5 5 5
19 19 18 18 17 16 15 15 15 15 15 15 15 15 14 14 13 13 13 13 13 12 12 12 13 13 14 16 17 17 17 17 18 18 18 16 16 14 13 12 12 12 13 14 15 14 13 12 13 13 13 13 10 7 6 6 7 8 9 9 9 8 7 7 6 6 5 5 5
19 19 18 18 17 16 15 15 16 16 15 15 14 14 14 14 13 13 13 13 13 12 12 12 12 13 14 16 16 16 16 16 17 18 17 16 15 13 12 12 12 12 12 12 11 11 11 11 12 12 12 12 11 9 9 8 8 9 10 10 9 8 8 7 7 6 6 6 6
20 19 19 19 18 17 16 16 16 16 16 15 14 14 14 13 13 13 13 13 13 12 12 12 13 13 15 15 16 16 16 16 17 17 17 16 14 13 13 13 13 13 12 10 9 9 9 10 10 11 11 11 11 12 11 11 10 10 10 10 10 9 8 8 8 7 7 8 7
20 19 19 19 19 18 16 16 16 16 16 15 14 14 13 13 12 12 13 13 13 12 12 13 13 13 14 15 16 16 16 16 16 16 15 14 14 14 14 15 14 13 12 10 10 10 10 10 10 11 12 12 13 13 13 12 12 11 11 11 10 10 9 9 9 9 9 9 8
20 19 19 19 19 17 16 16 17 17 16 15 14 14 14 13 13 13 13 13 13 13 13 13 13 13 14 15 16 16 15 15 15 15 14 14 14 14 14 15 14 13 12 12 12 12 11 11 12 13 13 14 14 14 13 13 12 12 12 12 11 11 10 10 10 10 10 10 10
20 19 19 19 19 18 16 16 17 16 15 14 14 14 14 13 13 13 13 13 13 13 13 13 13 13 14 15 15 15 14 14 14 14 14 14 14 14 14 13 13 13 13 13 14 13 13 12 13 14 15 15 15 14 14 13 13 13 13 13 12 12 12 12 12 11 11 11 12
20 19 19 19 19 18 17 17 17 16 15 14 14 14 14 14 14 14 13 13 13 13 13 13 13 14 15 15 15 14 14 14 14 14 14 15 15 14 13 14 14 14 14 15 15 15 14 13 14 15 15 16 16 15 15 14 14 13 13 14 14 13 13 14 13 13 13 13 13
20 19 19 19 19 18 17 17 17 16 15 14 14 15 15 14 14 14 13 13 13 13 13 13 14 15 15 15 14 14 14 14 14 14 15 15 15 15 15 15 16 16 16 16 16 16 15 15 15 15 16 17 17 17 16 15 15 14 14 15 15 16 15 15 14 14 14 14 15
20 20 19 19 19 18 18 18 17 16 15 14 14 14 14 15 15 14 13 13 13 13 13 13 15 16 15 14 14 14 14 14 15 15 16 16 17 17 17 16 17 17 17 17 17 16 16 15 15 16 17 17 18 18 18 17 16 16 16 16 17 18 17 16 15 15 15 15 16
21 21 20 19 19 19 19 18 17 16 15 14 14 14 14 15 14 14 13 13 14 14 14 15 16 16 15 14 14 14 14 15 15 16 17 17 18 18 18 17 17 18 18 18 17 17 16 16 16 17 18 18 19 19 18 17 17 17 18 18 19 19 19 18 17 16 16 16 16
22 21 21 20 20 20 20 19 17 15 14 14 14 14 14 14 14 14 13 14 14 14 15 16 16 16 15 14 14 14 15 16 16 17 17 18 18 18 18 18 18 18 18 18 18 17 17 17 17 18 19 19 19 19 18 18 18 19 20 21 20 20 20 19 18 17 17 16 16
23 22 22 21 22 22 21 19 17 15 14 14 14 14 14 14 14 14 14 14 15 15 15 16 16 15 15 15 15 16 16 17 17 17 18 18 19 19 19 19 19 19 19 18 18 17 17 18 18 19 20 19 19 19 19 19 19 21 22 22 21 21 20 20 19 18 17 17 17
24 23 23 23 23 23 21 19 17 15 14 14 14 14 14 14 14 14 14 15 16 16 16 16 15 15 15 15 17 17 17 18 18 18 19 20 20 20 20 20 20 20 20 20 19 18 19 19 19 20 20 21 21 20 20 20 21 22 22 23 22 22 21 20 19 18 18 18 17
24 24 25 25 25 23 21 20 17 16 15 15 15 14 15 15 15 14 14 15 17 17 17 16 16 15 16 17 18 18 19 19 19 20 21 21 21 21 21 21 21 21 21 21 21 20 20 20 20 20 21 22 22 22 21 21 22 22 22 22 22 21 21 20 19 18 18 18 18
25 26 26 26 26 24 22 20 18 16 16 15 16 16 15 15 15 15 16 17 17 17 17 17 17 17 18 18 19 20 20 21 21 21 22 22 22 21 21 21 22 22 22 22 22 22 22 22 22 22 22 23 23 23 23 22 22 22 22 21 21 21 20 20 19 18 18 18 19
26 27 27 27 26 24 22 21 19 17 17 17 17 17 16 16 16 16 17 18 17 17 17 18 18 19 20 20 21 21 22 22 22 22 23 23 22 22 22 22 23 23 23 23 23 23 23 23 23 23 23 24 24 24 24 23 23 23 22 22 21 21 20 20 19 19 19 18 19
27 27 28 27 26 24 23 22 20 19 18 18 18 18 17 17 17 17 18 19 19 19 19 19 20 21 22 22 22 23 23 23 23 23 23 23 23 23 23 23 23 23 23 23 23 24 24 25 24 24 24 25 25 24 24 24 24 24 23 23 22 22 21 21 21 20 19 19 19
27 27 27 26 25 24 23 22 21 20 20 20 20 19 19 18 19 19 20 20 21 21 21 22 22 23 23 24 24 23 23 23 23 24 24 24 23 23 24 24 24 24 24 24 24 25 25 26 26 25 25 26 25 25 25 25 25 25 24 24 24 23 23 23 22 21 21 20 19
27 27 27 26 25 24 23 22 22 21 21 21 21 21 20 20 20 21 22 22 23 23 24 24 25 25 25 24 24 24 23 23 24 24 24 24 24 24 24 24 25 24 24 25 25 26 26 27 26 26 26 26 26 26 26 26 26 26 26 25 25 25 24 24 23 23 22 21 21
26 26 26 25 25 24 23 23 23 23 23 22 22 22 21 21 21 22 24 24 24 24 25 25 26 26 25 25 25 24 24 23 24 24 25 25 25 25 25 25 25 25 25 26 26 27 27 27 26 27 27 27 27 27 28 27 27 27 27 27 26 26 25 25 24 24 23 23 23
26 25 25 25 24 24 23 23 24 24 24 23 23 22 22 22 23 24 25 26 26 25 26 26 26 26 26 25 25 25 25 25 25 25 26 26 26 26 25 25 26 26 26 27 27 28 27 27 27 28 28 28 28 28 28 28 28 27 27 27 27 27 26 26 25 25 25 25 25
25 25 24 24 24 24 24 24 24 24 24 24 23 23 23 24 25 26 26 26 26 26 26 26 26 26 26 26 26 27 27 27 27 26 26 27 27 27 26 26 26 27 27 28 28 29 29 29 29 29 29 29 29 29 28 28 29 29 28 28 28 27 27 27 26 26 26 25 25
25 24 24 23 24 24 25 25 25 25 25 24 24 25 25 26 27 27 27 27 27 27 27 26 26 26 26 26 27 27 27 28 27 27 27 27 28 28 27 27 28 28 28 28 28 28 29 30 30 30 30 30 29 29 29 30 30 30 29 28 28 27 27 26 26 25 25 25 24
25 25 25 25 25 25 26 26 26 25 25 26 26 27 27 28 28 28 28 28 28 28 28 27 27 27 27 27 27 27 27 28 28 28 28 28 28 28 28 29 29 29 28 28 27 28 28 29 30 30 30 29 29 30 30 31 30 29 28 28 27 27 25 24 23 22 22 22 21
25 25 26 26 26 26 26 26 26 26 27 27 28 28 29 29 29 29 29 29 29 29 29 28 28 28 28 28 28 27 27 27 27 28 29 29 29 29 29 29 29 29 28 28 28 28 28 28 28 28 29 29 30 30 29 29 28 27 27 27 26 25 23 21 20 19 19 18 18
25 26 27 27 27 26 26 26 27 27 28 28 29 30 30 30 30 30 31 31 31 31 30 29 29 28 28 28 28 27 27 27 27 28 29 29 29 29 29 29 29 29 28 28 28 28 28 27 27 28 28 29 30 30 29 27 26 26 25 24 23 22 21 20 19 18 17 17 17
26 26 27 27 27 26 26 27 28 28 29 29 30 30 30 31 31 32 32 32 32 32 31 30 29 29 29 28 27 27 27 27 27 28 29 29 29 29 29 28 28 29 29 28 28 28 27 27 27 28 29 29 30 30 29 27 25 24 22 21 20 20 20 19 18 18 17 17 17
26 27 27 27 27 27 27 27 28 28 29 30 30 31 31 32 32 33 33 33 33 33 32 31 30 29 29 28 28 28 28 28 28 29 29 29 29 29 29 29 29 29 29 28 28 27 27 27 28 28 29 29 28 28 27 25 23 21 20 19 18 18 18 18 17 17 17 17 16
26 27 27 27 28 27 27 27 28 29 29 29 30 31 32 32 32 33 33 34 34 33 33 32 30 30 29 29 28 28 28 29 29 30 30 30 29 29 29 29 29 29 28 28 27 27 27 27 28 28 28 28 27 26 25 23 21 20 18 17 17 18 17 17 17 17 17 17 17
26 26 27 28 28 27 27 28 28 28 29 29 30 31 32 32 32 32 33 34 34 33 33 32 31 30 29 29 29 29 29 30 30 30 30 30 30 29 29 29 29 28 28 27 27 27 27 28 28 28 27 27 26 25 24 22 21 19 18 18 18 18 18 18 18 18 19 19 19
26 27 27 27 27 27 27 28 28 28 29 29 30 31 31 32 33 33 33 34 34 34 33 33 32 31 30 29 29 30 30 30 30 30 31 31 30 30 29 29 28 28 27 27 27 27 27 28 28 27 27 27 27 25 24 22 21 21 20 20 20 20 19 19 19 20 20 19 19
27 27 27 28 28 28 28 28 28 28 28 28 29 30 31 32 33 33 33 33 34 34 34 33 32 32 31 31 31 31 31 30 31 31 31 31 31 31 30 28 27 27 27 27 27 27 27 27 27 27 27 27 27 26 24 23 23 23 23 23 22 22 21 20 20 20 19 19 18
28 28 28 29 29 29 29 28 28 28 28 28 28 29 31 32 32 32 32 33 33 34 34 34 33 32 32 32 32 32 31 31 31 31 32 32 31 31 29 27 26 26 26 27 27 27 27 27 27 27 27 27 27 25 25 24 25 25 25 25 24 23 22 21 20 19 18 18 17
29 29 29 30 30 30 29 29 28 28 28 28 28 29 30 31 32 32 33 33 33 34 34 33 33 32 32 32 32 32 32 32 32 31 31 31 31 30 29 27 26 26 27 27 27 27 27 27 27 27 28 27 26 26 25 25 25 25 25 24 23 22 21 20 19 18 18 17 17
30 31 31 31 31 31 30 29 28 28 29 29 29 29 29 30 31 32 33 34 34 34 34 34 34 33 32 31 31 32 32 33 32 31 31 30 30 30 29 28 27 27 27 27 27 27 27 27 27 28 28 28 27 26 26 26 25 25 24 23 22 21 20 19 19 18 17 17 17
31 32 32 32 32 32 31 30 29 29 29 29 29 30 30 31 31 32 33 34 35 35 35 35 35 34 33 32 31 32 32 33 33 32 31 30 30 31 31 30 28 27 27 27 27 27 27 27 27 28 28 28 27 26 26 25 24 24 23 23 22 21 20 19 19 18 17 16 15
32 33 33 33 32 32 31 30 30 30 30 30 30 31 31 32 32 32 32 33 34 34 34 35 34 34 34 34 33 32 32 33 32 32 31 30 30 31 31 30 29 27 27 26 26 26 27 27 27 28 28 29 28 27 25 24 24 23 23 22 22 21 20 19 17 16 16 15 14
33 33 34 33 33 32 31 30 30 30 31 31 31 31 32 32 32 31 31 32 33 34 35 35 35 35 35 35 33 32 32 31 31 31 31 30 30 31 31 30 29 27 27 26 26 26 26 27 27 28 28 28 27 26 25 24 24 23 23 22 21 20 18 17 16 16 15 15 15
33 34 34 34 33 32 31 30 30 31 31 32 32 32 32 32 32 31 31 31 32 34 35 36 36 36 35 35 34 33 32 31 30 30 30 29 29 30 30 30 29 28 27 26 26 26 26 27 27 27 27 27 26 26 25 25 24 23 22 21 19 18 17 16 16 16 15 15 15
33 33 33 33 33 32 32 31 31 31 32 33 33 33 33 33 33 32 32 32 32 33 34 35 36 36 35 34 34 34 33 32 30 30 29 29 29 28 29 29 29 28 27 26 25 25 26 26 27 27 27 27 26 25 25 25 24 23 21 20 18 18 17 17 16 16 15 15 14
Wind_Direction
170 170 170 169 169 168 165 164 163 163 163 164 164 165 166 167 168 169 171 174 174 175 177 179 180 180 181 182 185 186 187 188 189 192 196 198 198 197 195 193 192 200 209 215 219 219 216 212 213 215 214 208 194 177 163 154 151 154 157 156 151 151 155 159 166 176 181 181 179
170 169 169 169 168 166 164 163 163 165 166 165 165 166 166 167 166 167 169 171 173 173 173 175 177 177 178 179 183 184 184 185 187 190 193 195 195 193 189 186 184 190 201 210 216 216 211 206 208 211 213 214 206 184 155 140 145 153 158 161 163 166 168 167 166 168 168 163 159
170 169 169 169 168 167 165 164 165 166 167 167 167 166 166 166 166 166 168 169 169 169 169 171 173 174 175 176 179 180 181 182 184 187 190 191 191 188 182 178 177 182 191 202 209 206 197 193 199 204 208 208 199 178 157 150 155 160 162 163 165 165 162 156 155 156 154 147 144
170 169 169 169 169 168 166 165 166 166 167 166 166 166 165 165 164 164 165 165 165 166 167 168 168 170 172 174 175 177 179 180 182 184 186 186 184 181 177 175 174 177 183 188 188 179 173 176 184 189 192 191 183 171 163 163 166 165 161 158 157 154 150 147 147 148 146 141 140
170 170 170 170 169 168 166 166 165 166 166 165 165 165 165 163 162 161 162 162 164 166 166 165 164 167 170 173 174 175 176 177 179 180 181 180 178 177 178 179 180 182 182 178 169 162 161 165 168 170 171 172 170 167 166 168 166 160 154 150 147 145 144 142 143 145 144 140 138
171 170 170 170 169 168 166 166 166 166 165 165 165 164 163 163 162 161 161 161 162 162 162 162 162 163 167 171 172 173 173 173 175 176 176 174 173 174 178 183 187 188 185 179 172 166 162 163 159 158 160 162 162 163 165 165 161 155 148 143 141 141 141 140 141 142 142 139 134
171 170 169 169 168 168 166 166 166 167 166 166 166 164 163 163 162 161 160 158 158 159 159 160 160 161 164 168 169 169 169 169 170 171 170 169 168 169 174 180 184 185 183 179 175 169 165 162 157 154 155 157 157 157 159 160 158 153 146 139 139 140 139 137 139 140 138 134 129
170 169 168 167 167 167 166 166 166 167 167 168 167 166 164 163 161 159 157 155 156 158 158 158 160 162 163 163 164 165 165 164 164 164 164 165 163 163 166 172 173 174 175 175 173 170 166 163 158 155 154 155 153 154 156 158 158 153 146 139 138 137 137 136 137 137 135 130 124
169 168 167 166 166 166 166 166 168 168 168 168 168 166 164 162 159 157 155 154 156 157 157 156 160 162 162 160 160 160 159 159 158 159 160 161 160 159 161 164 166 167 169 171 172 171 168 164 159 157 156 155 153 153 156 160 157 152 145 139 136 136 137 137 137 136 132 127 121
167 166 165 164 165 165 166 167 169 170 169 167 166 164 162 161 158 156 154 155 156 155 155 157 161 161 159 157 156 154 153 152 154 156 158 158 160 161 162 163 164 165 166 168 170 170 168 163 159 157 157 156 153 153 155 158 155 149 142 138 136 136 136 137 135 132 128 124 119
165 165 164 163 164 165 167 168 170 170 169 166 163 161 160 159 157 155 154 154 154 154 156 160 161 159 155 153 152 150 149 150 152 155 157 160 162 163 163 163 164 165 165 166 167 167 164 161 158 156 154 153 151 151 151 153 151 145 139 137 137 136 134 132 130 128 124 121 117
163 163 163 163 164 166 168 169 168 168 167 164 161 159 158 157 155 154 153 153 153 154 157 161 159 155 151 150 148 146 147 151 153 155 157 158 160 160 160 161 163 164 164 164 165 164 162 159 157 153 150 149 149 148 148 148 145 141 137 136 136 134 131 129 127 125 122 119 115
162 161 161 162 165 167 169 168 167 166 164 161 159 157 155 154 153 153 153 153 154 155 156 156 153 149 147 146 146 147 151 154 155 154 154 154 155 157 158 159 161 162 162 162 163 162 159 156 155 152 149 147 147 146 146 144 141 139 137 136 134 132 129 127 124 123 120 117 114
161 160 161 163 166 168 168 167 165 163 161 158 156 154 152 151 152 152 152 153 155 155 153 150 148 146 146 147 151 154 155 155 154 152 152 154 155 157 157 158 160 159 159 159 160 159 156 154 153 152 150 147 145 144 143 142 139 137 136 135 132 129 126 124 123 122 120 117 114
160 160 162 164 166 167 167 166 164 161 158 155 154 152 151 150 150 150 150 153 155 153 150 148 147 147 149 152 155 156 155 155 154 153 153 155 156 157 158 158 159 158 157 156 156 155 154 153 153 152 150 146 144 142 140 138 136 134 132 131 129 127 125 124 124 122 120 118 116
160 161 163 164 166 166 166 164 162 159 156 154 154 153 151 150 149 149 151 152 151 150 149 148 148 149 151 154 156 156 155 155 155 155 154 154 155 156 157 158 158 157 157 155 154 153 152 152 151 150 148 144 141 139 137 134 132 130 129 128 127 126 125 124 123 121 118 116 114
161 162 163 165 165 166 164 162 160 157 156 154 154 153 151 149 148 150 151 151 149 148 149 149 149 149 150 152 154 155 154 154 154 154 153 153 154 155 155 156 157 157 157 156 153 151 149 148 146 145 143 140 138 135 133 132 130 128 127 127 125 124 123 121 119 116 114 112 111
162 163 164 164 164 164 162 160 158 157 155 154 154 152 150 149 148 149 150 150 150 149 149 149 150 151 151 151 152 153 153 152 151 151 152 152 153 153 154 154 155 156 156 155 152 149 145 143 141 138 137 135 134 132 131 130 129 128 127 125 123 121 119 117 114 112 111 111 110
163 164 164 164 164 162 160 159 157 155 155 155 154 152 150 149 149 149 150 151 152 152 151 151 151 152 152 151 151 151 151 150 149 149 150 151 151 152 152 152 153 154 154 152 150 147 143 141 139 136 134 133 132 131 131 130 129 127 125 122 120 118 116 114 112 111 111 111 112
164 164 164 165 164 162 159 158 156 155 155 155 153 151 149 149 150 151 152 153 154 155 154 153 152 151 151 150 149 148 147 148 148 148 148 149 149 149 149 150 151 152 151 149 147 145 143 140 138 136 135 134 133 132 131 129 127 124 122 120 118 116 114 113 112 111 111 112 113
164 165 165 164 162 159 158 156 155 155 155 153 152 150 149 149 150 151 153 155 156 156 155 153 151 149 148 147 146 144 143 144 145 145 145 145 145 145 147 149 150 149 148 146 145 143 141 139 137 136 136 135 133 132 129 127 124 121 119 117 116 114 113 112 112 111 111 111 112
164 164 163 162 159 157 155 155 155 154 153 151 149 148 147 148 150 152 153 154 154 153 151 150 148 147 146 146 144 142 141 141 142 143 143 143 143 144 146 149 149 148 146 146 145 143 141 139 138 138 137 135 132 130 128 125 123 120 118 116 115 114 112 111 111 110 110 109 109
163 162 161 159 157 155 154 153 153 152 150 148 146 146 147 148 150 151 152 151 150 149 147 145 144 144 144 145 145 143 142 141 141 142 143 144 143 144 145 147 148 147 147 147 147 146 144 141 140 138 136 133 131 129 127 126 124 121 119 117 115 113 112 111 110 109 108 107 105
161 159 158 156 155 154 153 152 151 149 147 146 146 147 148 148 149 148 148 147 146 144 143 142 142 142 143 144 144 144 143 142 141 141 142 143 143 143 145 146 147 148 148 148 149 148 146 143 140 138 135 132 130 129 128 127 125 122 120 118 116 114 112 111 110 109 107 105 103
158 157 156 155 154 154 153 151 149 147 146 146 147 147 147 147 146 145 144 143 142 142 142 141 141 142 142 142 143 143 144 144 143 142 141 142 142 143 144 145 146 147 147 147 148 148 146 143 140 138 135 132 130 129 128 126 124 123 121 120 118 116 114 112 111 109 106 104 102
157 156 155 155 154 154 152 150 148 146 146 146 147 146 146 145 144 143 142 140 141 141 142 141 141 141 141 141 141 141 142 142 143 143 142 141 141 142 143 143 144 144 144 145 146 145 144 143 141 139 137 134 131 129 127 125 124 124 123 122 120 119 118 116 114 111 108 106 105
156 155 155 155 154 152 150 148 146 146 146 146 146 145 144 143 142 141 140 140 140 141 141 140 140 140 140 141 140 140 139 140 141 142 142 142 141 141 141 141 141 141 142 143 143 143 143 143 142 141 138 135 133 131 128 127 126 125 124 123 123 122 121 119 117 115 113 112 111
155 155 154 153 152 150 148 147 146 146 146 146 145 144 143 143 142 141 140 140 140 140 139 138 139 140 140 139 139 139 139 140 140 140 140 141 140 139 139 138 137 138 140 141 142 143 143 143 143 141 138 136 133 131 130 128 127 126 125 124 124 123 121 119 118 117 117 115 114
155 154 153 151 149 148 148 147 146 146 146 146 145 144 143 142 141 141 140 140 140 139 138 138 139 139 138 137 138 139 139 139 139 138 138 138 137 137 136 135 135 136 139 141 142 143 143 143 142 140 138 136 134 132 130 129 128 127 126 125 125 123 122 120 119 119 118 117 115
154 152 151 149 148 147 147 146 146 146 145 145 145 144 143 142 141 141 141 141 140 140 139 140 139 138 137 137 138 138 137 137 137 137 136 135 134 133 133 133 134 136 139 142 144 144 144 143 142 140 139 137 135 133 132 130 129 128 127 126 125 124 123 122 121 121 120 120 118
152 151 149 147 146 145 145 146 145 145 144 144 144 143 142 141 140 141 141 141 141 141 141 141 139 137 136 137 137 136 136 136 136 136 135 134 133 132 132 132 133 136 140 143 144 144 144 143 142 141 140 139 137 134 133 132 130 128 127 126 126 125 124 123 123 123 124 124 124
150 149 147 145 143 143 143 144 144 144 144 144 144 143 141 141 141 141 141 141 140 140 139 138 137 135 135 135 136 135 135 135 135 135 135 134 133 131 131 132 133 137 140 143 144 144 144 144 144 143 142 141 138 135 133 132 130 128 127 127 127 127 126 125 126 127 128 129 129
149 147 145 143 142 141 142 142 142 142 143 143 143 142 140 140 140 140 139 140 139 138 138 138 137 136 135 135 134 134 134 134 134 135 135 134 133 131 130 130 132 136 141 143 144 144 145 145 145 145 143 141 137 135 133 132 130 129 129 129 130 129 129 128 129 130 132 132 131
148 146 144 142 140 140 140 141 141 141 141 141 141 140 139 139 138 137 137 137 137 137 138 138 138 137 137 137 136 135 134 134 134 134 134 133 133 131 130 130 132 137 142 144 145 146 146 146 146 144 142 139 136 134 132 132 130 130 131 131 131 131 131 131 132 133 134 133 131
148 146 144 142 141 140 140 141 141 141 141 140 139 139 138 138 137 136 136 136 136 136 136 137 137 137 137 137 137 136 135 134 134 134 133 133 132 131 130 130 133 138 143 145 146 146 147 147 146 144 141 138 135 133 132 131 130 131 132 132 132 132 132 133 133 133 133 131 128
148 146 144 142 141 141 141 141 141 141 140 139 138 138 137 136 136 136 136 136 135 134 133 134 135 135 134 134 135 136 136 135 134 133 133 133 132 131 130 131 134 139 144 146 147 147 147 147 146 144 141 137 134 132 131 130 130 130 131 130 130 130 130 129 128 127 126 124 121
148 146 144 143 142 141 142 142 142 141 140 139 138 137 136 135 134 135 135 136 134 133 133 134 134 134 134 134 134 135 136 136 135 134 133 134 133 132 131 132 135 140 144 147 148 148 148 147 146 144 141 137 134 132 130 129 128 128 127 126 125 125 124 123 121 120 119 118 116
148 147 145 143 142 142 142 143 142 141 140 139 138 137 136 135 134 134 135 136 134 133 133 133 134 134 135 135 135 134 135 135 135 134 134 134 134 134 133 134 136 140 145 148 148 148 148 148 147 145 142 137 133 131 129 127 126 125 124 122 121 120 119 118 116 115 114 114 113
148 147 145 143 142 142 143 143 143 142 141 139 138 137 135 134 134 134 135 136 135 134 134 133 133 134 135 135 133 132 132 132 133 133 133 133 134 135 135 135 137 141 145 148 149 149 149 148 147 145 142 137 133 131 129 127 126 124 122 121 119 117 115 114 113 113 112 111 111
148 147 146 144 143 143 143 144 144 143 142 140 138 136 135 134 134 134 135 135 135 135 134 133 133 134 134 134 132 131 130 130 131 132 132 133 134 135 135 136 138 141 145 149 150 150 149 148 147 145 142 138 134 132 130 128 126 125 123 121 120 118 116 114 114 113 112 112 111
147 147 146 145 145 144 144 144 144 144 143 140 138 137 135 134 134 133 133 133 133 133 132 132 133 133 133 133 132 130 129 129 129 130 131 132 133 134 135 136 138 141 145 148 150 150 150 149 148 146 143 139 136 133 131 129 127 125 124 124 123 121 120 119 117 116 115 115 113
Height
746 748 750 751 752 754 755 756 757 759 760 762 763 764 766 767 769 770 772 773 775 776 777 779 780 781 782 784 785 786 788 789 791 792 793 794 795 797 798 800 801 801 802 802 803 804 806 806 807 808 809 810 811 812 813 814 814 814 815 816 816 817 817 818 818 819 819 820 821
746 747 749 751 752 753 755 756 757 759 760 762 763 764 766 767 768 770 771 773 774 775 777 778 779 781 782 783 784 786 787 789 790 791 792 794 795 797 798 800 801 801 801 802 803 804 805 806 807 807 808 809 810 811 813 814 814 814 814 815 815 816 817 817 818 819 819 820 821
745 747 749 750 752 753 754 756 757 758 760 761 762 764 765 767 768 770 771 772 774 775 776 777 779 780 781 782 784 785 787 788 789 791 792 794 795 796 798 799 800 801 801 802 803 804 805 806 806 807 808 809 810 811 812 813 813 813 814 814 815 816 816 817 818 819 820 821 821
745 747 748 750 751 752 754 755 757 758 759 761 762 764 765 767 768 769 771 772 773 775 776 777 778 780 781 782 783 785 786 788 789 790 792 793 795 796 797 798 799 800 801 802 803 804 805 806 806 807 808 809 810 810 811 812 813 813 814 814 815 816 816 817 818 819 820 821 821
745 746 748 749 751 752 753 755 756 757 759 760 762 763 765 766 767 769 770 772 773 774 775 776 778 779 780 781 783 784 786 787 789 790 792 793 795 796 797 798 799 800 801 802 804 805 805 806 806 807 808 809 809 810 811 811 812 813 814 815 815 816 817 818 819 820 820 821 821
744 746 747 749 751 752 753 755 756 757 759 760 761 762 764 766 767 768 770 771 772 774 775 776 777 779 780 781 783 784 786 787 789 790 791 793 795 796 796 797 798 800 801 802 803 804 805 805 806 807 807 808 809 810 811 811 812 813 814 815 816 816 817 818 819 820 821 821 822
744 746 747 749 751 752 753 755 756 757 758 760 761 762 763 765 766 768 769 771 772 773 775 776 777 779 780 781 782 784 786 787 788 790 791 793 794 796 796 798 799 800 801 802 803 804 804 805 806 806 807 808 809 810 811 811 812 813 814 815 816 816 817 818 820 821 821 822 822
744 745 747 749 750 752 753 754 756 757 758 759 761 762 763 764 766 767 769 770 772 773 774 776 777 778 780 781 782 784 786 787 788 790 791 792 794 796 797 797 799 800 801 801 802 803 804 805 806 806 807 808 809 810 811 811 812 813 814 815 816 817 818 819 820 821 822 822 823
743 745 747 749 750 752 753 754 755 757 758 759 760 762 763 764 766 767 769 770 772 773 774 776 777 778 780 781 783 784 786 787 788 790 791 792 794 795 796 797 798 799 800 801 802 803 804 805 806 806 807 808 809 810 811 811 812 813 814 815 816 817 818 819 820 821 822 823 823
743 745 747 749 750 752 753 754 755 756 757 759 761 762 763 765 766 767 769 770 771 773 774 776 777 778 780 781 783 784 786 787 788 789 791 792 794 795 796 796 798 799 800 801 802 802 803 805 806 807 807 808 809 810 811 812 812 813 814 815 816 817 819 820 821 822 822 823 824
742 744 747 748 750 752 753 754 755 757 758 759 761 762 764 765 766 767 769 770 772 773 774 775 777 778 780 782 783 784 786 786 788 789 790 791 793 794 795 796 797 798 799 801 802 803 804 805 806 807 808 808 809 810 811 812 812 813 814 816 817 818 819 820 821 822 823 824 824
742 744 746 748 750 751 752 754 755 757 758 760 761 762 764 765 767 768 769 770 772 773 774 776 777 779 780 782 783 784 785 786 788 789 790 791 793 794 795 796 797 798 800 801 802 803 804 805 806 807 808 809 810 811 812 813 813 814 815 816 817 818 820 821 822 823 823 824 825
741 743 746 747 749 751 752 754 755 757 758 760 761 763 764 766 767 768 769 770 772 773 775 776 777 779 781 782 783 784 785 786 787 789 790 791 793 794 795 796 797 799 800 801 802 803 804 805 806 807 808 809 810 811 812 813 814 814 816 817 818 819 820 821 822 823 824 825 825
740 743 745 747 748 750 752 753 755 757 758 760 762 763 764 766 767 768 769 771 772 773 775 776 778 779 781 781 782 784 785 786 787 789 790 791 792 794 795 796 797 799 800 801 802 804 805 806 806 807 808 809 811 812 813 814 815 815 816 817 819 820 821 822 823 824 824 825 826
740 742 744 746 748 750 751 753 755 757 758 760 762 763 764 766 767 768 770 771 772 773 775 776 778 779 780 781 782 784 785 786 787 789 790 791 792 794 795 796 798 799 800 801 803 804 805 806 806 807 808 809 811 812 814 815 816 816 817 818 820 821 822 823 824 824 825 826 826
739 741 743 745 747 749 751 753 755 757 758 760 761 762 764 766 767 768 770 771 772 774 775 776 778 779 780 781 783 784 785 786 787 789 790 791 793 794 796 797 798 799 800 801 803 804 805 806 807 808 809 810 811 813 814 816 816 817 818 819 821 821 822 823 824 825 826 826 826
738 740 742 744 746 748 750 752 754 756 758 759 761 762 764 765 767 768 770 771 772 774 775 776 777 779 780 781 783 784 785 786 788 789 791 792 793 795 796 797 798 800 801 802 803 804 805 806 807 809 810 811 812 814 815 816 817 818 819 820 821 822 823 824 825 826 826 827 827
737 740 742 743 745 747 749 752 753 755 757 759 760 762 763 765 767 768 769 771 772 773 775 776 777 779 780 781 783 784 786 787 788 790 791 792 794 795 796 798 799 800 801 802 803 804 806 807 808 810 811 812 813 815 816 817 818 819 820 821 822 823 824 825 826 826 827 828 828
737 739 741 743 745 747 749 751 753 755 756 758 760 761 763 765 766 768 769 771 772 773 774 776 777 779 780 781 783 784 786 787 788 790 791 793 794 795 796 798 799 801 801 803 804 805 806 808 809 811 812 813 814 815 816 817 818 820 821 822 823 824 825 826 827 827 828 829 829
737 738 740 742 744 747 748 750 752 754 756 757 759 761 763 765 766 767 768 770 772 773 774 776 777 779 780 782 783 785 786 787 789 790 791 793 794 796 797 798 800 801 802 803 805 806 807 809 810 811 812 813 815 816 817 818 819 820 821 823 824 825 826 827 828 828 829 830 830
736 738 740 742 744 746 748 750 752 753 755 757 759 761 762 764 766 767 768 769 771 772 774 776 777 779 780 782 783 785 786 788 789 791 792 794 795 796 797 799 800 801 803 804 806 807 808 810 811 812 813 814 815 816 817 819 820 821 823 824 826 826 827 828 829 829 830 831 831
736 738 740 742 744 746 747 749 751 753 755 757 759 761 762 764 766 767 768 769 771 773 775 776 778 779 781 782 783 785 786 788 790 791 792 794 795 796 798 799 801 802 804 805 806 808 809 810 811 813 814 815 816 817 818 819 821 822 824 825 826 828 828 829 830 831 831 832 833
736 738 740 742 744 745 747 749 751 753 755 757 759 761 762 764 765 767 768 770 771 773 775 777 778 780 781 782 784 785 786 788 790 791 793 794 795 797 798 800 801 803 804 806 807 808 809 811 812 813 814 816 817 818 819 821 822 823 825 826 827 828 830 831 831 832 833 833 834
736 738 740 742 744 745 747 749 751 753 755 757 758 760 762 763 765 767 768 770 772 774 776 777 779 781 782 783 784 786 787 788 790 792 793 795 796 797 799 801 802 803 805 806 807 808 809 811 812 814 815 816 818 819 821 822 823 824 826 827 828 829 831 832 832 833 834 835 835
736 737 739 741 743 745 747 749 751 752 754 756 758 760 762 763 765 767 768 770 772 774 776 777 779 781 782 784 785 787 788 789 791 792 794 795 796 798 799 801 803 804 806 807 809 810 811 812 813 815 816 818 819 821 822 823 825 826 827 828 829 830 831 833 834 834 835 836 836
735 737 739 741 743 745 747 749 750 752 754 756 757 760 762 763 765 767 768 770 772 774 776 777 779 781 783 785 786 788 789 791 792 793 794 796 797 799 800 802 804 805 807 808 810 811 812 813 814 816 817 819 820 822 823 825 826 827 828 829 830 831 832 833 834 835 836 837 837
735 737 739 741 743 745 747 748 750 752 753 756 757 760 762 763 765 766 768 770 772 774 776 778 780 782 783 785 786 788 790 791 793 794 795 796 797 799 801 803 804 806 808 810 811 812 814 815 816 817 818 819 821 822 824 826 827 828 829 830 831 832 833 834 835 836 837 838 839
735 737 739 741 743 745 747 748 750 752 754 756 758 759 761 763 764 766 768 770 772 773 776 778 780 782 784 786 787 789 790 792 794 795 796 797 799 800 802 804 806 807 809 811 812 813 815 816 817 818 819 820 821 823 825 826 828 829 831 831 832 833 834 834 835 836 837 838 839
735 737 739 741 743 745 747 748 750 752 754 756 758 759 761 762 764 766 767 769 771 773 775 778 780 782 784 786 788 789 791 793 794 796 797 799 800 802 803 805 806 808 810 811 813 814 816 817 818 819 820 821 822 824 826 827 829 830 831 832 833 834 834 835 836 837 838 839 840
735 737 739 740 742 744 747 749 751 753 755 757 758 760 761 762 764 766 767 769 771 773 775 777 780 782 784 786 788 790 792 794 795 796 798 800 801 803 805 806 807 809 811 812 814 815 816 818 819 820 821 822 823 825 826 828 830 831 832 833 834 835 835 836 837 837 838 839 840
735 737 739 740 742 745 747 749 752 754 756 757 759 760 761 762 764 766 768 769 771 773 775 777 780 782 785 787 789 791 792 794 796 797 799 800 802 804 806 807 809 811 812 813 815 816 817 818 820 821 822 823 824 826 827 829 830 831 832 833 834 835 836 836 837 838 839 840 840
736 737 739 741 743 746 748 750 752 754 757 758 760 761 762 762 764 766 768 769 771 773 775 778 781 783 786 788 790 791 793 795 796 798 799 801 802 805 806 808 810 812 813 814 816 817 818 819 821 821 822 823 825 826 828 830 831 831 832 834 835 836 836 837 838 839 840 840 841
736 737 739 741 743 746 748 751 753 755 757 759 761 762 762 763 765 767 769 770 772 773 776 778 781 783 786 788 790 792 794 796 797 799 800 801 803 805 807 810 811 813 814 816 816 818 819 820 821 822 823 824 826 827 829 830 831 832 833 834 835 836 837 838 839 840 841 841 842
736 737 740 742 744 746 749 751 753 756 758 760 762 762 763 764 766 767 769 771 772 774 776 778 781 784 786 788 790 792 795 796 798 800 801 802 804 806 807 810 813 815 816 816 817 819 820 821 822 823 824 825 827 828 830 831 831 832 833 835 836 837 838 839 840 841 841 842 843
735 737 740 742 744 746 749 752 754 756 758 760 762 763 764 765 766 768 769 771 773 775 777 779 782 785 787 789 791 793 795 796 798 800 802 803 805 806 808 811 813 815 816 817 818 820 821 822 823 824 825 826 827 829 830 831 832 833 834 836 837 838 839 840 841 841 842 843 844
735 737 740 742 744 747 749 752 755 757 759 761 762 764 765 766 767 768 770 771 773 775 777 780 782 785 788 791 792 794 795 796 799 801 803 804 806 807 809 811 814 816 817 818 819 820 821 822 823 824 826 826 828 830 831 832 833 834 836 836 838 839 840 841 842 843 844 844 845
735 737 739 742 744 747 750 752 755 757 759 761 763 764 765 766 768 769 771 772 774 776 778 780 783 786 788 791 793 795 796 797 799 801 803 805 806 807 809 811 814 816 818 819 820 821 822 823 824 825 826 827 829 830 831 832 834 835 836 838 839 840 841 842 843 844 845 846 846
735 737 739 742 744 747 750 753 755 757 760 762 763 764 765 766 768 770 772 773 775 776 779 781 783 786 788 791 793 795 797 799 800 801 804 806 807 808 810 812 815 817 819 820 821 822 823 824 825 826 827 828 829 831 832 833 835 836 837 838 840 841 842 843 844 845 846 846 847
735 737 739 742 744 747 750 753 756 758 760 761 763 764 765 766 768 771 772 774 776 777 779 781 784 786 789 791 793 796 798 800 801 803 805 807 808 810 811 812 815 817 819 821 822 823 824 825 826 827 827 828 830 831 832 833 835 836 838 839 841 842 843 844 845 846 847 847 848
736 737 739 742 744 747 751 753 756 758 759 761 762 764 765 767 769 771 773 776 777 779 780 782 785 787 790 791 794 796 799 801 803 804 806 808 810 811 812 813 815 818 820 822 823 824 825 826 827 828 828 829 830 831 832 834 835 837 838 840 841 843 844 845 846 847 847 848 849
736 738 740 742 745 748 751 754 756 758 759 760 762 763 765 767 769 771 774 776 778 780 782 784 786 788 791 792 794 796 799 801 804 806 807 809 811 812 813 814 816 818 821 823 824 825 826 827 828 829 829 830 831 832 833 834 836 837 839 840 841 843 844 846 846 847 848 849 850